Wind_Speed
8 9 10 10 11 11 11 11 12 12 12 13 12 11 11 10 8 9 8 8 9 10 10 11 13 13 14 15 14 15 13 13 15 15 15 16 17 18 19 19 20 21 21
9 10 10 11 12 12 11 11 12 12 12 12 12 11 10 9 8 10 10 10 11 11 12 13 14 14 14 15 15 15 16 16 16 15 15 16 16 18 19 18 19 18 18
10 11 11 12 13 11 11 10 11 12 12 13 13 12 11 11 11 11 12 13 13 14 14 15 16 17 17 17 17 16 18 18 17 17 17 16 17 18 20 18 19 18 18
11 11 11 11 12 11 11 11 11 13 14 14 14 14 13 12 12 13 14 15 16 16 17 17 18 18 18 18 18 18 17 18 19 19 19 17 17 19 20 19 19 19 19
11 11 11 11 12 12 12 12 13 13 15 15 15 15 16 15 15 15 16 17 17 17 18 18 19 19 20 20 21 21 20 20 20 21 21 21 19 20 20 20 20 20 19
11 12 11 12 14 14 13 13 14 15 16 16 16 17 18 18 18 17 17 19 20 20 20 20 20 21 22 22 23 23 23 23 23 23 23 23 23 22 23 23 23 23 22
11 12 13 14 16 16 15 15 15 17 19 19 19 18 20 20 20 21 20 20 19 20 21 22 22 22 22 22 24 24 24 25 25 25 25 25 25 24 23 24 24 24 24
12 13 14 16 17 17 16 16 16 19 21 21 21 21 21 21 21 21 21 21 21 21 22 22 23 23 24 23 24 25 26 26 26 26 26 26 26 26 25 24 24 26 26
13 14 16 18 18 17 17 17 18 20 22 22 22 22 23 22 23 21 21 21 22 21 23 23 24 25 26 26 25 25 27 27 27 27 27 27 27 28 28 27 26 27 28
16 16 18 19 19 18 17 18 20 22 22 22 22 23 25 26 27 26 23 24 24 22 24 24 25 26 26 27 28 27 27 28 28 28 28 28 29 29 30 29 30 30 29
17 17 19 19 19 19 19 20 21 21 22 23 24 24 25 27 28 29 26 24 26 29 28 26 24 24 26 26 28 28 29 29 29 29 29 29 30 31 31 31 31 32 31
18 19 20 20 20 20 20 20 21 22 24 25 26 26 27 28 28 30 31 29 29 25 27 29 29 27 27 28 28 29 30 30 31 31 30 31 32 32 32 33 33 34 34
19 20 21 21 21 21 20 21 22 24 26 26 26 26 26 27 28 30 32 31 31 28 27 25 28 30 30 31 30 31 31 32 33 33 33 34 34 34 35 35 35 36 36
21 20 20 21 21 21 22 22 23 24 24 23 23 23 23 26 27 29 32 34 36 34 30 27 28 30 31 32 32 34 32 34 36 36 36 36 37 37 37 38 38 38 38
21 21 21 22 23 23 22 22 21 22 21 22 23 24 25 27 28 30 32 35 40 44 41 28 34 31 34 35 34 35 35 35 37 38 39 39 40 41 41 40 40 40 40
21 21 22 22 22 22 21 21 22 23 23 25 26 26 28 29 29 31 33 35 38 44 52 40 35 37 37 39 39 40 40 40 39 39 40 41 41 41 42 43 43 43 42
20 21 22 21 21 20 21 23 24 24 25 26 28 29 29 32 32 33 36 38 40 43 51 50 46 41 42 42 43 45 45 45 44 43 43 43 43 42 42 43 43 44 44
21 21 21 20 20 22 24 26 27 29 29 30 32 34 34 37 38 39 41 42 44 45 50 54 52 51 50 48 48 48 49 50 49 47 44 44 44 44 45 45 45 45 44
20 20 20 20 22 24 27 29 31 32 33 35 36 38 39 41 42 43 45 47 48 50 52 55 56 56 56 54 53 52 51 51 52 51 49 47 47 47 47 48 47 45 45
19 20 21 23 25 28 30 33 35 36 38 39 40 41 42 43 45 47 48 49 51 52 53 55 56 57 57 57 58 58 57 54 53 52 52 52 50 49 49 48 48 47 45
20 21 23 26 28 31 34 37 40 41 41 41 41 42 44 46 47 48 50 50 51 52 53 54 56 56 56 55 55 56 59 60 59 57 54 51 50 51 50 49 49 47 45
22 24 27 29 31 34 38 40 44 44 43 43 45 45 45 45 46 46 47 48 49 51 52 52 54 55 55 54 54 55 54 54 59 56 59 61 54 51 50 48 46 44 43
25 27 30 33 35 38 40 41 42 45 47 47 48 48 48 48 48 49 49 49 48 47 48 49 52 52 54 51 50 50 50 51 52 50 53 58 56 56 46 42 40 39 39
28 30 33 37 40 40 42 43 45 47 48 48 49 50 50 51 50 52 53 54 52 51 46 46 47 48 47 46 45 45 46 45 44 43 43 50 49 52 47 40 38 41 41
31 34 37 39 41 41 44 46 46 48 49 49 51 52 52 54 53 52 53 54 54 53 50 48 46 45 43 41 39 41 42 45 47 46 42 49 45 48 47 42 39 40 44
35 38 39 40 43 45 44 46 48 51 53 54 55 56 55 53 52 51 52 53 54 52 50 49 47 44 42 39 37 39 42 46 48 49 42 44 43 41 44 39 35 38 41
Wind_Direction
314 312 315 320 317 317 317 319 324 335 327 325 326 323 324 321 315 307 302 296 291 291 297 301 302 303 306 309 312 307 301 295 287 282 277 272 270 269 269 268 269 269 272
310 307 311 320 318 319 321 327 335 334 333 327 324 320 320 319 317 311 307 300 296 292 290 290 291 293 295 298 300 300 299 298 294 288 284 279 277 275 274 274 273 273 272
310 305 313 321 317 316 321 329 335 328 325 319 317 313 311 312 308 304 300 296 293 291 290 292 292 293 294 296 297 299 300 299 295 292 290 288 284 280 280 280 277 275 272
307 308 315 318 311 314 318 323 327 322 318 313 311 309 307 305 304 303 298 294 294 293 292 291 290 291 294 296 297 296 294 293 292 292 291 288 285 283 282 282 278 275 271
306 307 316 315 307 309 312 315 317 316 309 307 304 303 302 301 301 298 297 295 292 291 291 291 292 293 295 296 295 293 292 289 288 287 286 285 283 283 280 278 275 273 272
306 309 315 312 305 304 306 308 311 310 304 301 297 298 297 298 299 299 298 297 297 296 296 296 296 295 295 294 293 294 293 290 287 287 286 285 284 282 282 282 281 278 276
304 309 314 310 303 299 301 303 306 305 303 300 297 296 295 301 302 299 297 296 296 297 297 298 297 295 294 293 293 291 288 286 285 283 282 283 283 283 283 283 282 280 278
299 305 310 308 302 297 297 298 301 302 301 299 297 296 296 297 297 297 296 297 296 296 296 297 298 297 294 291 288 290 289 289 287 285 284 283 282 281 278 275 274 274 273
297 303 307 305 301 296 294 296 299 301 301 300 300 302 303 303 300 299 297 295 293 294 295 296 297 296 295 294 291 290 289 289 288 287 285 284 282 280 277 275 271 268 269
297 303 303 299 297 294 293 298 302 304 304 303 303 306 308 308 304 301 300 298 295 293 291 293 293 293 292 292 291 291 289 287 286 285 284 283 281 279 278 276 274 273 270
296 302 300 299 299 297 299 303 306 308 306 305 306 307 306 305 302 301 299 295 297 296 294 292 290 288 287 287 288 289 287 284 284 284 283 282 280 279 278 276 274 272 271
298 301 300 299 298 299 303 307 308 308 305 305 305 304 303 300 299 298 298 297 294 289 291 296 297 291 289 289 287 286 285 286 285 285 284 283 282 281 279 277 275 274 273
297 298 299 300 301 303 307 309 309 306 305 304 304 304 303 302 300 299 300 300 298 294 293 295 292 295 293 290 288 287 287 287 286 284 282 281 281 280 278 277 276 275 274
296 297 299 300 303 305 307 309 307 304 305 305 304 304 302 299 299 299 299 299 296 295 292 294 290 291 289 288 288 285 284 282 281 281 280 280 279 278 277 276 275 275 274
297 301 302 303 303 304 308 309 306 305 306 304 303 303 302 299 300 300 299 299 299 300 296 297 293 291 290 288 288 287 285 283 282 281 281 280 278 278 276 275 274 273 274
300 302 301 301 301 303 306 306 307 307 308 308 306 305 303 299 299 298 297 297 297 299 298 303 297 295 293 293 292 288 286 284 284 283 281 279 276 275 275 274 273 273 273
298 295 295 297 300 306 308 307 306 306 307 305 302 300 299 296 297 296 295 295 296 296 296 297 298 296 292 290 288 287 286 284 282 280 280 279 277 276 274 273 272 270 269
294 296 298 302 308 307 306 305 307 307 305 303 302 302 302 300 299 298 296 295 295 294 293 294 295 294 291 287 285 282 280 280 278 276 275 275 274 272 270 268 267 267 267
296 298 301 303 303 305 304 304 303 303 303 304 304 303 302 301 300 299 297 295 294 291 291 291 292 291 290 288 285 282 280 279 279 278 274 271 270 269 268 266 266 266 265
296 297 301 303 302 302 302 301 301 303 304 304 303 302 301 300 299 298 295 295 294 293 292 291 292 292 291 291 289 288 284 280 277 275 274 273 269 267 266 265 264 264 263
295 299 298 297 298 299 300 302 303 304 303 302 301 301 301 300 299 297 297 296 294 292 292 292 291 291 291 291 291 291 290 289 285 282 277 271 271 269 265 264 263 263 262
295 294 294 295 298 301 302 303 303 304 304 304 303 301 300 299 298 296 295 295 295 295 294 294 293 293 292 293 294 294 293 291 289 290 292 286 281 270 265 263 263 261 263
291 292 295 299 301 302 302 303 304 305 305 306 305 305 304 303 302 301 299 297 296 294 293 294 294 295 295 297 297 296 296 295 293 292 293 289 290 286 278 268 263 256 260
293 296 299 300 302 305 305 306 305 305 305 306 306 305 304 305 305 303 302 300 299 297 296 294 292 293 295 296 295 295 295 296 295 297 296 292 292 287 283 269 255 252 255
297 299 301 304 305 306 307 306 306 305 304 305 306 306 306 306 306 305 304 303 301 300 297 293 291 293 295 294 294 291 292 290 291 293 295 292 294 293 288 273 252 251 246
301 303 304 306 307 307 307 307 307 308 307 305 304 304 304 305 305 306 306 304 302 301 298 295 294 295 295 294 293 292 295 295 293 291 294 290 290 288 289 282 260 258 250
Height
3161 3161 3160 3158 3157 3155 3154 3153 3151 3150 3148 3147 3146 3145 3144 3143 3142 3141 3140 3139 3138 3137 3136 3135 3134 3133 3132 3131 3130 3128 3127 3126 3124 3124 3123 3122 3122 3121 3120 3120 3120 3121 3121
3159 3159 3157 3155 3155 3153 3151 3150 3149 3148 3146 3145 3144 3143 3142 3140 3140 3139 3138 3137 3136 3134 3133 3132 3131 3130 3129 3128 3127 3126 3124 3123 3122 3121 3120 3119 3119 3117 3116 3116 3115 3116 3116
3157 3156 3154 3153 3152 3151 3149 3148 3147 3146 3145 3143 3141 3140 3139 3138 3136 3135 3135 3134 3133 3132 3130 3129 3128 3127 3126 3125 3124 3123 3121 3120 3118 3117 3116 3116 3115 3114 3113 3113 3112 3111 3110
3154 3153 3151 3150 3150 3148 3147 3145 3145 3144 3143 3141 3139 3138 3136 3134 3133 3132 3132 3131 3130 3129 3128 3126 3125 3124 3123 3121 3120 3119 3118 3116 3115 3114 3112 3112 3111 3110 3109 3109 3108 3107 3106
3151 3150 3148 3147 3147 3146 3144 3142 3142 3142 3141 3139 3137 3135 3134 3132 3130 3129 3128 3128 3127 3126 3124 3123 3121 3120 3119 3117 3116 3115 3114 3112 3111 3109 3108 3108 3107 3105 3104 3103 3102 3101 3101
3148 3147 3145 3145 3145 3143 3142 3140 3139 3138 3138 3136 3135 3132 3131 3129 3127 3126 3125 3124 3123 3122 3121 3120 3118 3117 3115 3113 3112 3110 3109 3108 3107 3106 3104 3103 3103 3101 3099 3099 3098 3097 3096
3145 3144 3143 3142 3142 3140 3139 3137 3136 3135 3134 3133 3131 3129 3127 3125 3123 3121 3120 3120 3119 3117 3116 3114 3113 3112 3110 3108 3106 3105 3103 3101 3100 3099 3098 3097 3096 3095 3095 3093 3092 3091 3091
3142 3141 3140 3139 3138 3137 3135 3134 3132 3131 3130 3128 3126 3125 3123 3123 3120 3119 3116 3115 3113 3112 3111 3109 3106 3105 3104 3102 3101 3099 3097 3095 3094 3093 3091 3090 3089 3088 3087 3087 3086 3084 3083
3138 3137 3136 3136 3135 3133 3131 3130 3128 3127 3126 3124 3122 3120 3117 3116 3114 3114 3112 3110 3108 3107 3105 3103 3100 3098 3096 3095 3094 3093 3090 3088 3087 3085 3084 3083 3082 3081 3080 3079 3078 3077 3076
3135 3133 3132 3132 3130 3129 3127 3126 3124 3123 3122 3120 3118 3115 3112 3110 3108 3107 3106 3104 3102 3101 3099 3098 3095 3093 3091 3089 3087 3086 3084 3081 3080 3078 3076 3075 3074 3073 3072 3072 3071 3071 3069
3131 3129 3128 3127 3126 3125 3123 3121 3119 3118 3117 3115 3113 3110 3107 3105 3102 3099 3099 3098 3095 3092 3091 3091 3088 3086 3083 3081 3080 3078 3076 3074 3072 3071 3070 3068 3066 3065 3064 3063 3062 3062 3061
3127 3125 3124 3123 3121 3120 3118 3116 3114 3113 3112 3109 3107 3104 3102 3099 3096 3092 3089 3089 3088 3089 3086 3083 3080 3078 3075 3074 3072 3070 3069 3067 3065 3063 3062 3060 3059 3058 3056 3055 3054 3053 3052
3123 3121 3119 3118 3117 3115 3114 3112 3109 3108 3106 3103 3100 3098 3095 3092 3089 3085 3081 3080 3078 3080 3078 3078 3073 3070 3067 3065 3064 3062 3060 3058 3056 3054 3052 3051 3049 3048 3047 3045 3044 3044 3043
3117 3117 3115 3114 3112 3110 3108 3105 3103 3101 3100 3097 3094 3092 3090 3087 3083 3080 3075 3071 3068 3067 3069 3069 3067 3063 3060 3057 3055 3052 3051 3048 3046 3044 3042 3040 3038 3037 3036 3035 3034 3033 3032
3113 3111 3110 3109 3107 3104 3101 3099 3097 3096 3094 3091 3089 3087 3085 3081 3078 3074 3070 3065 3058 3052 3054 3063 3055 3056 3051 3048 3047 3044 3042 3039 3036 3034 3031 3030 3028 3026 3025 3025 3024 3022 3021
3108 3106 3104 3103 3100 3097 3095 3094 3093 3091 3089 3086 3084 3082 3079 3075 3073 3069 3064 3060 3055 3046 3035 3046 3048 3044 3041 3038 3035 3031 3029 3027 3024 3021 3019 3017 3016 3014 3013 3012 3012 3011 3011
3102 3101 3099 3097 3095 3092 3091 3090 3088 3086 3083 3081 3077 3075 3072 3067 3065 3062 3057 3052 3047 3042 3030 3029 3030 3032 3028 3025 3022 3018 3015 3013 3011 3009 3006 3004 3002 3001 3001 2999 2999 2998 2998
3097 3095 3094 3092 3090 3088 3085 3083 3082 3079 3076 3073 3069 3065 3062 3057 3054 3050 3045 3041 3036 3032 3023 3016 3015 3014 3011 3010 3006 3003 2999 2996 2994 2994 2993 2989 2987 2986 2985 2984 2984 2984 2984
3092 3090 3089 3086 3084 3082 3080 3077 3074 3071 3068 3064 3060 3056 3052 3047 3043 3038 3033 3027 3023 3017 3011 3004 3001 2997 2994 2992 2990 2987 2985 2982 2979 2977 2976 2975 2973 2971 2969 2968 2969 2970 2970
3087 3085 3083 3081 3079 3076 3073 3069 3066 3062 3059 3055 3050 3045 3040 3035 3030 3025 3019 3014 3008 3002 2996 2991 2986 2982 2977 2974 2968 2965 2964 2964 2962 2960 2958 2957 2957 2955 2954 2954 2954 2954 2956
3081 3079 3078 3075 3072 3069 3065 3060 3056 3052 3048 3044 3040 3035 3029 3024 3018 3011 3004 2999 2993 2987 2981 2976 2971 2966 2962 2958 2952 2948 2943 2940 2940 2938 2938 2940 2939 2939 2938 2939 2937 2939 2940
3075 3073 3071 3068 3066 3062 3057 3052 3045 3040 3036 3031 3026 3023 3017 3012 3005 2999 2993 2987 2981 2973 2968 2962 2958 2952 2948 2942 2937 2933 2929 2926 2920 2921 2916 2915 2917 2919 2921 2922 2923 2924 2925
3069 3067 3064 3061 3058 3053 3047 3041 3035 3029 3024 3020 3014 3008 3002 2996 2990 2984 2978 2972 2968 2962 2956 2949 2943 2939 2933 2931 2925 2920 2916 2911 2908 2908 2899 2897 2896 2895 2903 2905 2907 2908 2910
3063 3060 3056 3052 3047 3043 3036 3031 3026 3019 3012 3007 3001 2994 2988 2981 2975 2968 2962 2956 2951 2947 2943 2938 2931 2927 2922 2919 2914 2908 2902 2898 2895 2894 2891 2881 2883 2878 2881 2885 2890 2892 2894
3056 3052 3047 3043 3037 3032 3026 3020 3014 3007 3001 2995 2988 2981 2974 2967 2961 2954 2946 2940 2934 2929 2926 2921 2917 2913 2910 2907 2903 2895 2891 2886 2881 2881 2881 2870 2872 2865 2864 2865 2872 2875 2879
3048 3043 3038 3033 3027 3021 3015 3008 3000 2992 2986 2980 2975 2967 2960 2953 2947 2940 2932 2924 2917 2914 2908 2903 2901 2898 2895 2892 2890 2885 2879 2873 2869 2863 2869 2859 2858 2857 2850 2851 2856 2859 2861